Time,TemperatureF,DewpointF,PressureIn,WindDirection,WindDirectionDegrees,WindSpeedMPH,WindSpeedGustMPH,Humidity,HourlyPrecipIn,Conditions,Clouds,dailyrainin,SoftwareType,DateUTC
2013-05-27 00:02:00,47.7,24.4,29.85,South,180,3.0,4.0,40,0.00,,,0.00,meteohub,2013-05-27 06:02:00,
2013-05-27 00:07:00,47.7,24.4,29.85,South,180,3.0,4.0,40,0.00,,,0.00,meteohub,2013-05-27 06:07:00,
2013-05-27 00:12:00,50.2,20.7,29.80,South,180,2.0,4.0,31,0.00,,,0.00,meteohub,2013-05-27 06:12:00,
2013-05-27 00:17:00,50.2,22.1,29.80,SSE,158,2.0,4.0,33,0.00,,,0.00,meteohub,2013-05-27 06:17:00,
2013-05-27 00:22:00,48.9,24.4,29.82,South,180,2.0,4.0,38,0.00,,,0.00,meteohub,2013-05-27 06:22:00,
2013-05-27 00:27:00,46.8,23.2,29.86,South,180,2.0,4.0,39,0.00,,,0.00,meteohub,2013-05-27 06:27:00,
2013-05-27 00:32:00,46.8,22.5,29.86,SE,135,2.0,4.0,38,0.00,,,0.00,meteohub,2013-05-27 06:32:00,
2013-05-27 00:37:00,46.6,23.0,29.86,South,180,2.0,4.0,39,0.00,,,0.00,meteohub,2013-05-27 06:37:00,
2013-05-27 00:42:00,45.7,22.1,29.88,SW,225,4.0,4.0,39,0.00,,,0.00,meteohub,2013-05-27 06:42:00,
2013-05-27 00:47:00,45.9,21.7,29.87,SE,135,2.0,4.0,38,0.00,,,0.00,meteohub,2013-05-27 06:47:00,
2013-05-27 00:52:00,46.4,20.8,29.86,SE,135,2.0,4.0,36,0.00,,,0.00,meteohub,2013-05-27 06:52:00,
2013-05-27 00:57:00,46.2,20.7,29.86,South,180,3.0,4.0,36,0.00,,,0.00,meteohub,2013-05-27 06:57:00,
2013-05-27 01:02:00,46.4,20.8,29.86,South,180,3.0,4.0,36,0.00,,,0.00,meteohub,2013-05-27 07:02:00,
2013-05-27 01:07:00,46.4,20.8,29.86,South,180,3.0,4.0,36,0.00,,,0.00,meteohub,2013-05-27 07:07:00,
2013-05-27 01:12:00,45.1,21.0,29.88,South,180,2.0,4.0,38,0.00,,,0.00,meteohub,2013-05-27 07:12:00,
2013-05-27 01:17:00,45.7,20.8,29.86,South,180,2.0,4.0,37,0.00,,,0.00,meteohub,2013-05-27 07:17:00,
2013-05-27 01:22:00,46.2,18.7,29.85,WSW,248,4.0,4.0,33,0.00,,,0.00,meteohub,2013-05-27 07:22:00,
2013-05-27 01:27:00,47.1,19.4,29.83,ESE,113,4.0,5.0,33,0.00,,,0.00,meteohub,2013-05-27 07:27:00,
2013-05-27 01:32:00,47.7,16.9,29.82,SSW,203,4.0,5.0,29,0.00,,,0.00,meteohub,2013-05-27 07:32:00,
2013-05-27 01:37:00,48.6,16.2,29.81,NW,315,2.0,8.0,27,0.00,,,0.00,meteohub,2013-05-27 07:37:00,
2013-05-27 01:42:00,49.6,14.4,29.79,SW,225,4.0,8.0,24,0.00,,,0.00,meteohub,2013-05-27 07:42:00,
2013-05-27 01:47:00,50.9,14.4,29.76,SE,135,2.0,8.0,23,0.00,,,0.00,meteohub,2013-05-27 07:47:00,
2013-05-27 01:52:00,51.6,14.0,29.75,East,90,2.0,8.0,22,0.00,,,0.00,meteohub,2013-05-27 07:52:00,
2013-05-27 01:57:00,51.4,13.8,29.74,NW,315,4.0,8.0,22,0.00,,,0.00,meteohub,2013-05-27 07:57:00,
2013-05-27 02:02:00,51.6,11.8,29.74,SSE,158,6.0,8.0,20,0.00,,,0.00,meteohub,2013-05-27 08:02:00,
2013-05-27 02:07:00,51.6,11.8,29.74,SSE,158,6.0,7.0,20,0.00,,,0.00,meteohub,2013-05-27 08:07:00,
2013-05-27 02:17:00,50.4,14.9,29.76,SW,225,2.0,6.0,24,0.00,,,0.00,meteohub,2013-05-27 08:17:00,
2013-05-27 02:22:00,50.5,12.0,29.75,SSE,158,4.0,9.0,21,0.00,,,0.00,meteohub,2013-05-27 08:22:00,
2013-05-27 02:27:00,51.1,11.3,29.74,East,90,3.0,9.0,20,0.00,,,0.00,meteohub,2013-05-27 08:27:00,
2013-05-27 02:32:00,51.6,9.5,29.73,NE,45,8.0,9.0,18,0.00,,,0.00,meteohub,2013-05-27 08:32:00,
2013-05-27 02:37:00,52.2,7.3,29.72,ENE,68,3.0,15.0,16,0.00,,,0.00,meteohub,2013-05-27 08:37:00,
2013-05-27 02:42:00,52.7,6.3,29.71,SSE,158,4.0,15.0,15,0.00,,,0.00,meteohub,2013-05-27 08:42:00,
2013-05-27 02:47:00,53.2,5.2,29.70,NW,315,11.0,15.0,14,0.00,,,0.00,meteohub,2013-05-27 08:47:00,
2013-05-27 02:52:00,53.6,5.5,29.70,SSW,203,7.0,11.0,14,0.00,,,0.00,meteohub,2013-05-27 08:52:00,
2013-05-27 02:57:00,53.4,5.4,29.70,ENE,68,4.0,11.0,14,0.00,,,0.00,meteohub,2013-05-27 08:57:00,
2013-05-27 03:02:00,53.2,5.2,29.70,South,180,8.0,11.0,14,0.00,,,0.00,meteohub,2013-05-27 09:02:00,
2013-05-27 03:07:00,53.2,5.2,29.70,South,180,8.0,9.0,14,0.00,,,0.00,meteohub,2013-05-27 09:07:00,
2013-05-27 03:12:00,52.7,6.3,29.71,SE,135,2.0,8.0,15,0.00,,,0.00,meteohub,2013-05-27 09:12:00,
2013-05-27 03:17:00,52.3,8.8,29.71,SW,225,2.0,8.0,17,0.00,,,0.00,meteohub,2013-05-27 09:17:00,
2013-05-27 03:22:00,52.0,5.7,29.72,SW,225,6.0,10.0,15,0.00,,,0.00,meteohub,2013-05-27 09:22:00,
2013-05-27 03:27:00,52.3,6.1,29.71,SW,225,4.0,11.0,15,0.00,,,0.00,meteohub,2013-05-27 09:27:00,
2013-05-27 03:37:00,52.3,4.5,29.71,South,180,4.0,8.0,14,0.00,,,0.00,meteohub,2013-05-27 09:37:00,
2013-05-27 03:42:00,52.0,5.7,29.71,South,180,10.0,10.0,15,0.00,,,0.00,meteohub,2013-05-27 09:42:00,
2013-05-27 03:47:00,52.0,7.2,29.71,SSE,158,4.0,10.0,16,0.00,,,0.00,meteohub,2013-05-27 09:47:00,
2013-05-27 03:52:00,51.8,7.0,29.72,South,180,4.0,12.0,16,0.00,,,0.00,meteohub,2013-05-27 09:52:00,
2013-05-27 03:57:00,51.6,6.8,29.73,SE,135,4.0,12.0,16,0.00,,,0.00,meteohub,2013-05-27 09:57:00,
2013-05-27 04:02:00,51.3,7.9,29.73,South,180,3.0,12.0,17,0.00,,,0.00,meteohub,2013-05-27 10:02:00,
2013-05-27 04:07:00,51.3,7.9,29.73,South,180,3.0,9.0,17,0.00,,,0.00,meteohub,2013-05-27 10:07:00,
2013-05-27 04:12:00,48.7,9.5,29.78,NW,315,2.0,9.0,20,0.00,,,0.00,meteohub,2013-05-27 10:12:00,
2013-05-27 04:17:00,48.0,9.9,29.79,South,180,2.0,5.0,21,0.00,,,0.00,meteohub,2013-05-27 10:17:00,
2013-05-27 04:22:00,47.7,9.7,29.80,SW,225,2.0,5.0,21,0.00,,,0.00,meteohub,2013-05-27 10:22:00,
2013-05-27 04:27:00,47.5,9.5,29.80,SW,225,4.0,5.0,21,0.00,,,0.00,meteohub,2013-05-27 10:27:00,
2013-05-27 04:32:00,47.5,10.6,29.80,SW,225,4.0,5.0,22,0.00,,,0.00,meteohub,2013-05-27 10:32:00,
2013-05-27 04:37:00,47.7,10.6,29.79,South,180,4.0,5.0,22,0.00,,,0.00,meteohub,2013-05-27 10:37:00,
2013-05-27 04:42:00,48.2,9.0,29.78,SE,135,4.0,6.0,20,0.00,,,0.00,meteohub,2013-05-27 10:42:00,
2013-05-27 04:47:00,48.0,9.9,29.78,North,0,4.0,6.0,21,0.00,,,0.00,meteohub,2013-05-27 10:47:00,
2013-05-27 04:52:00,48.0,9.9,29.78,SSE,158,5.0,6.0,21,0.00,,,0.00,meteohub,2013-05-27 10:52:00,
2013-05-27 04:57:00,48.2,9.0,29.78,SW,225,4.0,6.0,20,0.00,,,0.00,meteohub,2013-05-27 10:57:00,
2013-05-27 05:02:00,49.1,7.3,29.76,South,180,9.0,9.0,18,0.00,,,0.00,meteohub,2013-05-27 11:02:00,
2013-05-27 05:07:00,49.1,7.3,29.76,South,180,9.0,9.0,18,0.00,,,0.00,meteohub,2013-05-27 11:07:00,
2013-05-27 05:12:00,50.7,3.2,29.73,WSW,248,8.0,11.0,14,0.00,,,0.00,meteohub,2013-05-27 11:12:00,
2013-05-27 05:17:00,51.6,0.7,29.71,NW,315,6.0,11.0,12,0.00,,,0.00,meteohub,2013-05-27 11:17:00,
2013-05-27 05:22:00,52.2,1.0,29.71,SW,225,11.0,11.0,12,0.00,,,0.00,meteohub,2013-05-27 11:22:00,
2013-05-27 05:32:00,52.7,-0.4,29.70,SSE,158,6.0,18.0,11,0.00,,,0.00,meteohub,2013-05-27 11:32:00,
2013-05-27 05:37:00,53.1,-2.2,29.70,SW,225,11.0,18.0,10,0.00,,,0.00,meteohub,2013-05-27 11:37:00,
2013-05-27 05:42:00,53.4,53.4,29.68,SW,225,14.0,18.0,0,0.00,,,0.00,meteohub,2013-05-27 11:42:00,
2013-05-27 05:47:00,54.0,54.0,29.67,North,0,18.0,18.0,0,0.00,,,0.00,meteohub,2013-05-27 11:47:00,
2013-05-27 05:52:00,53.8,-1.5,29.67,South,180,10.0,19.0,10,0.00,,,0.00,meteohub,2013-05-27 11:52:00,
2013-05-27 05:57:00,53.6,53.6,29.68,SW,225,12.0,19.0,0,0.00,,,0.00,meteohub,2013-05-27 11:57:00,
2013-05-27 06:02:00,54.5,54.5,29.66,SW,225,16.0,19.0,0,0.00,,,0.00,meteohub,2013-05-27 12:02:00,
2013-05-27 06:07:00,54.5,54.5,29.67,SW,225,16.0,16.0,0,0.00,,,0.00,meteohub,2013-05-27 12:07:00,
2013-05-27 06:12:00,55.8,55.8,29.65,SE,135,5.0,16.0,0,0.00,,,0.00,meteohub,2013-05-27 12:12:00,
2013-05-27 06:17:00,56.3,56.3,29.64,South,180,8.0,16.0,0,0.00,,,0.00,meteohub,2013-05-27 12:17:00,
2013-05-27 06:22:00,56.7,56.7,29.63,SE,135,11.0,16.0,0,0.00,,,0.00,meteohub,2013-05-27 12:22:00,
2013-05-27 06:32:00,57.2,57.2,29.62,SE,135,9.0,18.0,0,0.00,,,0.00,meteohub,2013-05-27 12:32:00,
2013-05-27 06:37:00,57.9,57.9,29.61,North,0,8.0,18.0,0,0.00,,,0.00,meteohub,2013-05-27 12:37:00,
2013-05-27 06:42:00,58.6,58.6,29.60,SSE,158,8.0,17.0,0,0.00,,,0.00,meteohub,2013-05-27 12:42:00,
2013-05-27 06:47:00,59.2,59.2,29.59,SW,225,11.0,17.0,0,0.00,,,0.00,meteohub,2013-05-27 12:47:00,
2013-05-27 06:52:00,59.2,59.2,29.59,East,90,11.0,11.0,0,0.00,,,0.00,meteohub,2013-05-27 12:52:00,
2013-05-27 06:57:00,59.4,59.4,29.58,SSW,203,9.0,15.0,0,0.00,,,0.00,meteohub,2013-05-27 12:57:00,
2013-05-27 07:02:00,59.4,59.4,29.58,North,0,16.0,16.0,0,0.00,,,0.00,meteohub,2013-05-27 13:02:00,
2013-05-27 07:07:00,59.4,59.4,29.59,North,0,16.0,16.0,0,0.00,,,0.00,meteohub,2013-05-27 13:07:00,
2013-05-27 07:12:00,60.1,60.1,29.57,North,0,8.0,16.0,0,0.00,,,0.00,meteohub,2013-05-27 13:12:00,
2013-05-27 07:17:00,60.4,60.4,29.57,SW,225,11.0,16.0,0,0.00,,,0.00,meteohub,2013-05-27 13:17:00,
2013-05-27 07:22:00,60.1,60.1,29.57,South,180,13.0,17.0,0,0.00,,,0.00,meteohub,2013-05-27 13:22:00,
2013-05-27 07:32:00,60.8,60.8,29.56,NW,315,15.0,19.0,0,0.00,,,0.00,meteohub,2013-05-27 13:32:00,
2013-05-27 07:37:00,61.0,61.0,29.56,NW,315,11.0,19.0,0,0.00,,,0.00,meteohub,2013-05-27 13:37:00,
2013-05-27 07:42:00,61.5,61.5,29.55,SW,225,11.0,17.0,0,0.00,,,0.00,meteohub,2013-05-27 13:42:00,
2013-05-27 07:47:00,61.5,61.5,29.55,NW,315,6.0,15.0,0,0.00,,,0.00,meteohub,2013-05-27 13:47:00,
2013-05-27 07:52:00,62.2,62.2,29.55,East,90,14.0,19.0,0,0.00,,,0.00,meteohub,2013-05-27 13:52:00,
2013-05-27 07:57:00,62.2,62.2,29.55,NW,315,15.0,20.0,0,0.00,,,0.00,meteohub,2013-05-27 13:57:00,
2013-05-27 08:02:00,62.2,62.2,29.55,NW,315,17.0,20.0,0,0.00,,,0.00,meteohub,2013-05-27 14:02:00,
2013-05-27 08:12:00,64.2,64.2,29.52,SW,225,19.0,19.0,0,0.00,,,0.00,meteohub,2013-05-27 14:12:00,
2013-05-27 08:17:00,63.9,63.9,29.53,South,180,15.0,19.0,0,0.00,,,0.00,meteohub,2013-05-27 14:17:00,
2013-05-27 08:22:00,64.4,64.4,29.52,NW,315,9.0,19.0,0,0.00,,,0.00,meteohub,2013-05-27 14:22:00,
2013-05-27 08:27:00,64.9,64.9,29.52,SW,225,4.0,19.0,0,0.00,,,0.00,meteohub,2013-05-27 14:27:00,
2013-05-27 08:32:00,66.2,66.2,29.50,NW,315,4.0,15.0,0,0.00,,,0.00,meteohub,2013-05-27 14:32:00,
2013-05-27 08:37:00,65.5,65.5,29.51,NW,315,8.0,12.0,0,0.00,,,0.00,meteohub,2013-05-27 14:37:00,
2013-05-27 08:42:00,66.2,66.2,29.50,SE,135,5.0,12.0,0,0.00,,,0.00,meteohub,2013-05-27 14:42:00,
2013-05-27 08:47:00,65.8,65.8,29.51,SW,225,11.0,11.0,0,0.00,,,0.00,meteohub,2013-05-27 14:47:00,
2013-05-27 08:52:00,63.9,63.9,29.55,SW,225,6.0,15.0,0,0.00,,,0.00,meteohub,2013-05-27 14:52:00,
2013-05-27 08:57:00,62.2,62.2,29.57,SE,135,10.0,15.0,0,0.00,,,0.00,meteohub,2013-05-27 14:57:00,
2013-05-27 09:02:00,61.9,61.9,29.58,West,270,12.0,15.0,0,0.00,,,0.00,meteohub,2013-05-27 15:02:00,
2013-05-27 09:07:00,61.9,61.9,29.57,West,270,12.0,15.0,0,0.00,,,0.00,meteohub,2013-05-27 15:07:00,
2013-05-27 09:12:00,61.3,61.3,29.58,NW,315,11.0,13.0,0,0.00,,,0.00,meteohub,2013-05-27 15:12:00,
2013-05-27 09:17:00,62.2,5.0,29.57,East,90,2.0,12.0,10,0.00,,,0.00,meteohub,2013-05-27 15:17:00,
2013-05-27 09:22:00,63.1,63.1,29.55,NE,45,4.0,12.0,0,0.00,,,0.00,meteohub,2013-05-27 15:22:00,
2013-05-27 09:27:00,63.0,63.0,29.55,North,0,8.0,11.0,0,0.00,,,0.00,meteohub,2013-05-27 15:27:00,
2013-05-27 09:37:00,62.6,5.2,29.57,North,0,4.0,11.0,10,0.00,,,0.00,meteohub,2013-05-27 15:37:00,
2013-05-27 09:42:00,62.6,5.2,29.56,SW,225,4.0,12.0,10,0.00,,,0.00,meteohub,2013-05-27 15:42:00,
2013-05-27 09:47:00,62.8,5.4,29.56,West,270,8.0,12.0,10,0.00,,,0.00,meteohub,2013-05-27 15:47:00,
2013-05-27 09:52:00,62.6,62.6,29.56,West,270,7.0,8.0,0,0.00,,,0.00,meteohub,2013-05-27 15:52:00,
2013-05-27 09:57:00,61.3,6.3,29.58,West,270,4.0,11.0,11,0.00,,,0.00,meteohub,2013-05-27 15:57:00,
2013-05-27 10:02:00,61.2,4.1,29.59,North,0,7.0,11.0,10,0.00,,,0.00,meteohub,2013-05-27 16:02:00,
2013-05-27 10:07:00,61.2,4.1,29.59,North,0,7.0,11.0,10,0.00,,,0.00,meteohub,2013-05-27 16:07:00,
2013-05-27 10:12:00,59.9,9.0,29.60,South,180,3.0,9.0,13,0.00,,,0.00,meteohub,2013-05-27 16:12:00,
2013-05-27 10:17:00,60.1,9.1,29.60,SE,135,2.0,9.0,13,0.00,,,0.00,meteohub,2013-05-27 16:17:00,
2013-05-27 10:22:00,60.8,11.3,29.59,SE,135,4.0,9.0,14,0.00,,,0.00,meteohub,2013-05-27 16:22:00,
2013-05-27 10:27:00,60.4,7.5,29.60,SW,225,6.0,8.0,12,0.00,,,0.00,meteohub,2013-05-27 16:27:00,
2013-05-27 10:32:00,60.3,5.5,29.60,SE,135,4.0,9.0,11,0.00,,,0.00,meteohub,2013-05-27 16:32:00,
2013-05-27 10:37:00,60.4,7.5,29.60,SSW,203,5.0,9.0,12,0.00,,,0.00,meteohub,2013-05-27 16:37:00,
2013-05-27 10:42:00,61.3,6.3,29.57,NW,315,3.0,9.0,11,0.00,,,0.00,meteohub,2013-05-27 16:42:00,
2013-05-27 10:47:00,63.3,63.3,29.54,NW,315,6.0,6.0,0,0.00,,,0.00,meteohub,2013-05-27 16:47:00,
2013-05-27 10:52:00,65.3,65.3,29.51,SE,135,2.0,8.0,0,0.00,,,0.00,meteohub,2013-05-27 16:52:00,
2013-05-27 10:57:00,65.8,65.8,29.49,East,90,10.0,14.0,0,0.00,,,0.00,meteohub,2013-05-27 16:57:00,
2013-05-27 11:02:00,65.7,65.7,29.50,East,90,5.0,15.0,0,0.00,,,0.00,meteohub,2013-05-27 17:02:00,
2013-05-27 11:07:00,65.7,65.7,29.50,East,90,5.0,15.0,0,0.00,,,0.00,meteohub,2013-05-27 17:07:00,
2013-05-27 11:12:00,67.5,67.5,29.47,NW,315,5.0,15.0,0,0.00,,,0.00,meteohub,2013-05-27 17:12:00,
2013-05-27 11:17:00,67.8,67.8,29.47,SW,225,5.0,12.0,0,0.00,,,0.00,meteohub,2013-05-27 17:17:00,
2013-05-27 11:22:00,67.1,67.1,29.48,SW,225,9.0,15.0,0,0.00,,,0.00,meteohub,2013-05-27 17:22:00,
2013-05-27 11:27:00,67.6,67.6,29.46,NW,315,10.0,15.0,0,0.00,,,0.00,meteohub,2013-05-27 17:27:00,
2013-05-27 11:32:00,67.5,67.5,29.47,North,0,9.0,17.0,0,0.00,,,0.00,meteohub,2013-05-27 17:32:00,
2013-05-27 11:37:00,67.3,67.3,29.47,NW,315,9.0,17.0,0,0.00,,,0.00,meteohub,2013-05-27 17:37:00,
2013-05-27 11:42:00,67.8,67.8,29.46,North,0,13.0,17.0,0,0.00,,,0.00,meteohub,2013-05-27 17:42:00,
2013-05-27 11:47:00,68.0,68.0,29.45,SE,135,14.0,15.0,0,0.00,,,0.00,meteohub,2013-05-27 17:47:00,
2013-05-27 11:52:00,68.0,68.0,29.45,NW,315,11.0,15.0,0,0.00,,,0.00,meteohub,2013-05-27 17:52:00,
2013-05-27 11:57:00,68.4,68.4,29.45,North,0,10.0,15.0,0,0.00,,,0.00,meteohub,2013-05-27 17:57:00,
2013-05-27 12:02:00,68.4,68.4,29.45,West,270,11.0,15.0,0,0.00,,,0.00,meteohub,2013-05-27 18:02:00,
2013-05-27 12:07:00,68.4,68.4,29.44,West,270,11.0,13.0,0,0.00,,,0.00,meteohub,2013-05-27 18:07:00,
2013-05-27 12:12:00,68.5,68.5,29.43,WNW,293,4.0,13.0,0,0.00,,,0.00,meteohub,2013-05-27 18:12:00,
2013-05-27 12:17:00,69.4,69.4,29.42,NW,315,9.0,11.0,0,0.00,,,0.00,meteohub,2013-05-27 18:17:00,
2013-05-27 12:22:00,69.8,69.8,29.43,SW,225,13.0,13.0,0,0.00,,,0.00,meteohub,2013-05-27 18:22:00,
2013-05-27 12:27:00,68.0,68.0,29.45,West,270,7.0,13.0,0,0.00,,,0.00,meteohub,2013-05-27 18:27:00,
2013-05-27 12:32:00,68.4,68.4,29.44,NW,315,9.0,17.0,0,0.00,,,0.00,meteohub,2013-05-27 18:32:00,
2013-05-27 12:37:00,68.7,68.7,29.44,South,180,8.0,17.0,0,0.00,,,0.00,meteohub,2013-05-27 18:37:00,
2013-05-27 12:42:00,68.7,68.7,29.43,SSW,203,12.0,17.0,0,0.00,,,0.00,meteohub,2013-05-27 18:42:00,
2013-05-27 12:52:00,69.3,69.3,29.42,SW,225,12.0,12.0,0,0.00,,,0.00,meteohub,2013-05-27 18:52:00,
2013-05-27 12:57:00,68.9,68.9,29.42,SSW,203,10.0,21.0,0,0.00,,,0.00,meteohub,2013-05-27 18:57:00,
2013-05-27 13:02:00,68.4,68.4,29.42,NW,315,6.0,21.0,0,0.00,,,0.00,meteohub,2013-05-27 19:02:00,
2013-05-27 13:07:00,68.4,68.4,29.42,NW,315,6.0,13.0,0,0.00,,,0.00,meteohub,2013-05-27 19:07:00,
2013-05-27 13:12:00,68.9,68.9,29.42,NE,45,4.0,14.0,0,0.00,,,0.00,meteohub,2013-05-27 19:12:00,
2013-05-27 13:17:00,70.5,70.5,29.39,SW,225,8.0,14.0,0,0.00,,,0.00,meteohub,2013-05-27 19:17:00,
2013-05-27 13:22:00,70.0,70.0,29.39,East,90,3.0,14.0,0,0.00,,,0.00,meteohub,2013-05-27 19:22:00,
2013-05-27 13:27:00,70.5,70.5,29.39,South,180,14.0,15.0,0,0.00,,,0.00,meteohub,2013-05-27 19:27:00,
2013-05-27 13:32:00,69.8,69.8,29.40,SW,225,11.0,17.0,0,0.00,,,0.00,meteohub,2013-05-27 19:32:00,
2013-05-27 13:37:00,70.9,70.9,29.38,East,90,8.0,17.0,0,0.00,,,0.00,meteohub,2013-05-27 19:37:00,
2013-05-27 13:42:00,70.9,70.9,29.39,North,0,8.0,17.0,0,0.00,,,0.00,meteohub,2013-05-27 19:42:00,
2013-05-27 13:47:00,69.1,69.1,29.41,West,270,8.0,15.0,0,0.00,,,0.00,meteohub,2013-05-27 19:47:00,
2013-05-27 13:52:00,68.7,68.7,29.42,NW,315,7.0,13.0,0,0.00,,,0.00,meteohub,2013-05-27 19:52:00,
2013-05-27 13:57:00,68.7,68.7,29.42,SW,225,13.0,14.0,0,0.00,,,0.00,meteohub,2013-05-27 19:57:00,
2013-05-27 14:02:00,68.7,68.7,29.40,SSE,158,5.0,14.0,0,0.00,,,0.00,meteohub,2013-05-27 20:02:00,
2013-05-27 14:07:00,68.7,68.7,29.40,SSE,158,5.0,14.0,0,0.00,,,0.00,meteohub,2013-05-27 20:07:00,
2013-05-27 14:22:00,69.3,69.3,29.39,West,270,9.0,17.0,0,0.00,,,0.00,meteohub,2013-05-27 20:22:00,
2013-05-27 14:27:00,69.1,69.1,29.39,SW,225,8.0,17.0,0,0.00,,,0.00,meteohub,2013-05-27 20:27:00,
2013-05-27 14:37:00,68.9,68.9,29.39,West,270,7.0,15.0,0,0.00,,,0.00,meteohub,2013-05-27 20:37:00,
2013-05-27 14:42:00,70.3,70.3,29.36,West,270,4.0,15.0,0,0.00,,,0.00,meteohub,2013-05-27 20:42:00,
2013-05-27 14:47:00,70.5,70.5,29.36,South,180,8.0,15.0,0,0.00,,,0.00,meteohub,2013-05-27 20:47:00,
2013-05-27 14:52:00,70.2,70.2,29.36,NW,315,7.0,16.0,0,0.00,,,0.00,meteohub,2013-05-27 20:52:00,
2013-05-27 14:57:00,70.3,70.3,29.36,South,180,4.0,16.0,0,0.00,,,0.00,meteohub,2013-05-27 20:57:00,
2013-05-27 15:02:00,70.2,70.2,29.36,ENE,68,4.0,16.0,0,0.00,,,0.00,meteohub,2013-05-27 21:02:00,
2013-05-27 15:07:00,70.2,70.2,29.37,ENE,68,4.0,15.0,0,0.00,,,0.00,meteohub,2013-05-27 21:07:00,
2013-05-27 15:12:00,69.4,69.4,29.38,SW,225,7.0,13.0,0,0.00,,,0.00,meteohub,2013-05-27 21:12:00,
2013-05-27 15:17:00,68.4,68.4,29.40,West,270,8.0,15.0,0,0.00,,,0.00,meteohub,2013-05-27 21:17:00,
2013-05-27 15:22:00,68.7,68.7,29.39,North,0,6.0,15.0,0,0.00,,,0.00,meteohub,2013-05-27 21:22:00,
2013-05-27 15:27:00,68.9,68.9,29.39,West,270,6.0,15.0,0,0.00,,,0.00,meteohub,2013-05-27 21:27:00,
2013-05-27 15:32:00,68.0,68.0,29.40,NE,45,4.0,21.0,0,0.00,,,0.00,meteohub,2013-05-27 21:32:00,
2013-05-27 15:37:00,67.8,67.8,29.40,NE,45,4.0,21.0,0,0.00,,,0.00,meteohub,2013-05-27 21:37:00,
2013-05-27 15:42:00,67.6,67.6,29.40,ESE,113,8.0,15.0,0,0.00,,,0.00,meteohub,2013-05-27 21:42:00,
2013-05-27 15:47:00,66.0,66.0,29.43,SW,225,13.0,14.0,0,0.00,,,0.00,meteohub,2013-05-27 21:47:00,
2013-05-27 15:52:00,65.1,65.1,29.43,SW,225,8.0,14.0,0,0.00,,,0.00,meteohub,2013-05-27 21:52:00,
2013-05-27 15:57:00,64.8,64.8,29.44,NE,45,5.0,14.0,0,0.00,,,0.00,meteohub,2013-05-27 21:57:00,
2013-05-27 16:02:00,64.6,64.6,29.45,South,180,9.0,14.0,0,0.00,,,0.00,meteohub,2013-05-27 22:02:00,
2013-05-27 16:12:00,63.7,63.7,29.46,SSW,203,7.0,11.0,0,0.00,,,0.00,meteohub,2013-05-27 22:12:00,
2013-05-27 16:17:00,65.1,65.1,29.44,SW,225,4.0,9.0,0,0.00,,,0.00,meteohub,2013-05-27 22:17:00,
2013-05-27 16:22:00,67.1,67.1,29.41,SE,135,4.0,9.0,0,0.00,,,0.00,meteohub,2013-05-27 22:22:00,
2013-05-27 16:27:00,68.4,68.4,29.39,SSW,203,10.0,10.0,0,0.00,,,0.00,meteohub,2013-05-27 22:27:00,
2013-05-27 16:32:00,68.5,68.5,29.38,SSE,158,8.0,10.0,0,0.00,,,0.00,meteohub,2013-05-27 22:32:00,
2013-05-27 16:42:00,66.2,66.2,29.41,NW,315,10.0,23.0,0,0.00,,,0.00,meteohub,2013-05-27 22:42:00,
2013-05-27 16:47:00,64.8,9.0,29.44,NE,45,4.0,23.0,11,0.00,,,0.00,meteohub,2013-05-27 22:47:00,
2013-05-27 16:57:00,63.5,10.0,29.46,SW,225,11.0,14.0,12,0.00,,,0.00,meteohub,2013-05-27 22:57:00,
2013-05-27 17:02:00,63.0,9.5,29.47,WNW,293,14.0,14.0,12,0.00,,,0.00,meteohub,2013-05-27 23:02:00,
2013-05-27 17:07:00,63.0,9.5,29.47,WNW,293,14.0,14.0,12,0.00,,,0.00,meteohub,2013-05-27 23:07:00,
2013-05-27 17:12:00,61.5,13.5,29.49,South,180,7.0,14.0,15,0.00,,,0.00,meteohub,2013-05-27 23:12:00,
2013-05-27 17:17:00,61.2,14.5,29.50,North,0,5.0,14.0,16,0.00,,,0.00,meteohub,2013-05-27 23:17:00,
2013-05-27 17:22:00,61.2,14.5,29.50,North,0,9.0,14.0,16,0.00,,,0.00,meteohub,2013-05-27 23:22:00,
2013-05-27 17:27:00,61.2,14.5,29.49,NE,45,5.0,10.0,16,0.00,,,0.00,meteohub,2013-05-27 23:27:00,
2013-05-27 17:32:00,61.2,16.0,29.49,North,0,4.0,10.0,17,0.00,,,0.00,meteohub,2013-05-27 23:32:00,
2013-05-27 17:37:00,61.2,14.5,29.49,NW,315,8.0,10.0,16,0.00,,,0.00,meteohub,2013-05-27 23:37:00,
2013-05-27 17:42:00,60.8,14.4,29.50,NW,315,7.0,8.0,16,0.00,,,0.00,meteohub,2013-05-27 23:42:00,
2013-05-27 17:47:00,61.0,15.8,29.49,North,0,8.0,9.0,17,0.00,,,0.00,meteohub,2013-05-27 23:47:00,
2013-05-27 17:52:00,64.0,16.9,29.44,WSW,248,6.0,9.0,16,0.00,,,0.00,meteohub,2013-05-27 23:52:00,
2013-05-27 17:57:00,66.2,13.8,29.41,West,270,11.0,11.0,13,0.00,,,0.00,meteohub,2013-05-27 23:57:00,
2013-05-27 18:02:00,66.9,12.6,29.40,NE,45,10.0,11.0,12,0.00,,,0.00,meteohub,2013-05-28 00:02:00,
2013-05-27 18:07:00,66.9,12.6,29.40,NE,45,10.0,11.0,12,0.00,,,0.00,meteohub,2013-05-28 00:07:00,
2013-05-27 18:12:00,64.0,13.8,29.44,SE,135,8.0,11.0,14,0.00,,,0.00,meteohub,2013-05-28 00:12:00,
2013-05-27 18:17:00,62.1,15.3,29.47,NW,315,8.0,10.0,16,0.00,,,0.00,meteohub,2013-05-28 00:17:00,
2013-05-27 18:22:00,60.6,15.6,29.50,WSW,248,9.0,11.0,17,0.00,,,0.00,meteohub,2013-05-28 00:22:00,
2013-05-27 18:27:00,59.7,17.4,29.52,NE,45,6.0,16.0,19,0.00,,,0.00,meteohub,2013-05-28 00:27:00,
2013-05-27 18:32:00,59.2,19.2,29.54,North,0,17.0,21.0,21,0.00,,,0.00,meteohub,2013-05-28 00:32:00,
2013-05-27 18:37:00,58.8,19.0,29.54,NW,315,6.0,21.0,21,0.00,,,0.00,meteohub,2013-05-28 00:37:00,
2013-05-27 18:42:00,59.0,19.0,29.53,SSE,158,4.0,21.0,21,0.00,,,0.00,meteohub,2013-05-28 00:42:00,
2013-05-27 18:47:00,59.4,19.4,29.53,NW,315,6.0,20.0,21,0.00,,,0.00,meteohub,2013-05-28 00:47:00,
2013-05-27 18:52:00,59.2,19.2,29.53,SSW,203,11.0,11.0,21,0.00,,,0.00,meteohub,2013-05-28 00:52:00,
2013-05-27 18:57:00,59.0,20.1,29.53,South,180,6.0,15.0,22,0.00,,,0.00,meteohub,2013-05-28 00:57:00,
2013-05-27 19:02:00,59.7,20.8,29.53,West,270,5.0,15.0,22,0.00,,,0.00,meteohub,2013-05-28 01:02:00,
2013-05-27 19:07:00,59.7,20.8,29.52,West,270,5.0,14.0,22,0.00,,,0.00,meteohub,2013-05-28 01:07:00,
2013-05-27 19:12:00,58.8,21.0,29.54,NW,315,7.0,15.0,23,0.00,,,0.00,meteohub,2013-05-28 01:12:00,
2013-05-27 19:17:00,59.2,21.4,29.54,SW,225,9.0,16.0,23,0.00,,,0.00,meteohub,2013-05-28 01:17:00,
2013-05-27 19:22:00,58.8,22.1,29.54,NW,315,4.0,16.0,24,0.00,,,0.00,meteohub,2013-05-28 01:22:00,
2013-05-27 19:27:00,58.3,21.6,29.55,North,0,4.0,16.0,24,0.00,,,0.00,meteohub,2013-05-28 01:27:00,
2013-05-27 19:32:00,58.3,21.6,29.55,South,180,4.0,10.0,24,0.00,,,0.00,meteohub,2013-05-28 01:32:00,
2013-05-27 19:37:00,58.1,22.5,29.55,SW,225,4.0,7.0,25,0.00,,,0.00,meteohub,2013-05-28 01:37:00,
2013-05-27 19:42:00,58.1,22.5,29.55,SW,225,3.0,6.0,25,0.00,,,0.00,meteohub,2013-05-28 01:42:00,
2013-05-27 19:47:00,57.7,22.1,29.56,East,90,2.0,5.0,25,0.00,,,0.00,meteohub,2013-05-28 01:47:00,
2013-05-27 19:52:00,57.4,22.8,29.57,North,0,2.0,5.0,26,0.00,,,0.00,meteohub,2013-05-28 01:52:00,
2013-05-27 19:57:00,57.2,24.4,29.57,SW,225,2.0,4.0,28,0.00,,,0.00,meteohub,2013-05-28 01:57:00,
2013-05-27 20:02:00,56.3,23.5,29.59,SW,225,1.0,2.0,28,0.00,,,0.00,meteohub,2013-05-28 02:02:00,
2013-05-27 20:07:00,56.3,23.5,29.59,SW,225,1.0,2.0,28,0.00,,,0.00,meteohub,2013-05-28 02:07:00,
2013-05-27 20:12:00,54.9,21.6,29.61,SW,225,3.0,3.0,27,0.00,,,0.00,meteohub,2013-05-28 02:12:00,
2013-05-27 20:17:00,55.0,19.8,29.61,NW,315,4.0,5.0,25,0.00,,,0.00,meteohub,2013-05-28 02:17:00,
2013-05-27 20:22:00,55.2,19.9,29.61,WNW,293,4.0,7.0,25,0.00,,,0.00,meteohub,2013-05-28 02:22:00,
2013-05-27 20:27:00,55.0,19.8,29.62,WNW,293,4.0,7.0,25,0.00,,,0.00,meteohub,2013-05-28 02:27:00,
2013-05-27 20:32:00,54.9,19.8,29.62,NW,315,6.0,7.0,25,0.00,,,0.00,meteohub,2013-05-28 02:32:00,
2013-05-27 20:37:00,54.5,20.3,29.62,NW,315,3.0,7.0,26,0.00,,,0.00,meteohub,2013-05-28 02:37:00,
2013-05-27 20:42:00,54.3,20.1,29.62,NW,315,3.0,7.0,26,0.00,,,0.00,meteohub,2013-05-28 02:42:00,
2013-05-27 20:47:00,53.8,20.7,29.64,SW,225,2.0,7.0,27,0.00,,,0.00,meteohub,2013-05-28 02:47:00,
2013-05-27 20:52:00,53.4,20.3,29.64,NW,315,3.0,6.0,27,0.00,,,0.00,meteohub,2013-05-28 02:52:00,
2013-05-27 20:57:00,53.4,20.3,29.64,NW,315,3.0,6.0,27,0.00,,,0.00,meteohub,2013-05-28 02:57:00,
2013-05-27 21:02:00,53.2,20.1,29.65,SE,135,2.0,6.0,27,0.00,,,0.00,meteohub,2013-05-28 03:02:00,
2013-05-27 21:07:00,53.2,20.1,29.65,SE,135,2.0,6.0,27,0.00,,,0.00,meteohub,2013-05-28 03:07:00,
2013-05-27 21:12:00,53.2,19.2,29.65,NW,315,6.0,6.0,26,0.00,,,0.00,meteohub,2013-05-28 03:12:00,
2013-05-27 21:17:00,53.2,19.2,29.65,South,180,3.0,6.0,26,0.00,,,0.00,meteohub,2013-05-28 03:17:00,
2013-05-27 21:22:00,52.9,19.8,29.66,NE,45,3.0,6.0,27,0.00,,,0.00,meteohub,2013-05-28 03:22:00,
2013-05-27 21:27:00,51.8,22.1,29.68,NE,45,4.0,6.0,31,0.00,,,0.00,meteohub,2013-05-28 03:27:00,
2013-05-27 21:32:00,51.1,22.3,29.70,North,0,2.0,4.0,32,0.00,,,0.00,meteohub,2013-05-28 03:32:00,
2013-05-27 21:37:00,49.8,22.6,29.72,SW,225,2.0,4.0,34,0.00,,,0.00,meteohub,2013-05-28 03:37:00,
2013-05-27 21:42:00,48.9,23.2,29.75,SW,225,2.0,4.0,36,0.00,,,0.00,meteohub,2013-05-28 03:42:00,
2013-05-27 21:47:00,48.2,23.7,29.76,SW,225,3.0,4.0,38,0.00,,,0.00,meteohub,2013-05-28 03:47:00,
2013-05-27 21:52:00,47.8,24.1,29.77,SW,225,3.0,4.0,39,0.00,,,0.00,meteohub,2013-05-28 03:52:00,
2013-05-27 21:57:00,47.3,23.5,29.78,SW,225,3.0,4.0,39,0.00,,,0.00,meteohub,2013-05-28 03:57:00,
2013-05-27 22:02:00,47.3,23.5,29.78,SSE,158,3.0,6.0,39,0.00,,,0.00,meteohub,2013-05-28 04:02:00,
2013-05-27 22:07:00,47.3,23.5,29.78,SSE,158,3.0,6.0,39,0.00,,,0.00,meteohub,2013-05-28 04:07:00,
2013-05-27 22:12:00,47.1,24.1,29.78,SW,225,3.0,6.0,40,0.00,,,0.00,meteohub,2013-05-28 04:12:00,
2013-05-27 22:17:00,47.3,23.0,29.78,South,180,4.0,4.0,38,0.00,,,0.00,meteohub,2013-05-28 04:17:00,
2013-05-27 22:27:00,48.0,23.0,29.77,SW,225,2.0,4.0,37,0.00,,,0.00,meteohub,2013-05-28 04:27:00,
2013-05-27 22:32:00,47.8,22.1,29.77,South,180,7.0,7.0,36,0.00,,,0.00,meteohub,2013-05-28 04:32:00,
2013-05-27 22:37:00,48.2,22.5,29.76,SW,225,2.0,7.0,36,0.00,,,0.00,meteohub,2013-05-28 04:37:00,
2013-05-27 22:42:00,47.7,22.6,29.78,SW,225,4.0,7.0,37,0.00,,,0.00,meteohub,2013-05-28 04:42:00,
2013-05-27 22:47:00,47.5,22.5,29.78,SW,225,2.0,7.0,37,0.00,,,0.00,meteohub,2013-05-28 04:47:00,
2013-05-27 22:52:00,47.3,22.3,29.78,SW,225,3.0,4.0,37,0.00,,,0.00,meteohub,2013-05-28 04:52:00,
2013-05-27 22:57:00,47.3,22.3,29.78,SW,225,3.0,4.0,37,0.00,,,0.00,meteohub,2013-05-28 04:57:00,
2013-05-27 23:02:00,47.1,22.1,29.78,SW,225,3.0,4.0,37,0.00,,,0.00,meteohub,2013-05-28 05:02:00,
2013-05-27 23:07:00,47.1,22.1,29.77,SW,225,3.0,4.0,37,0.00,,,0.00,meteohub,2013-05-28 05:07:00,
2013-05-27 23:12:00,47.3,22.3,29.78,WSW,248,4.0,4.0,37,0.00,,,0.00,meteohub,2013-05-28 05:12:00,
2013-05-27 23:17:00,47.1,22.1,29.78,SW,225,2.0,4.0,37,0.00,,,0.00,meteohub,2013-05-28 05:17:00,
2013-05-27 23:27:00,46.8,22.5,29.78,SW,225,4.0,4.0,38,0.00,,,0.00,meteohub,2013-05-28 05:27:00,
2013-05-27 23:32:00,46.8,22.5,29.78,South,180,2.0,4.0,38,0.00,,,0.00,meteohub,2013-05-28 05:32:00,
2013-05-27 23:37:00,46.4,22.8,29.79,North,0,3.0,4.0,39,0.00,,,0.00,meteohub,2013-05-28 05:37:00,
2013-05-27 23:42:00,45.7,22.8,29.80,SW,225,0.0,4.0,40,0.00,,,0.00,meteohub,2013-05-28 05:42:00,
2013-05-27 23:47:00,44.8,22.5,29.81,West,270,1.0,3.0,41,0.00,,,0.00,meteohub,2013-05-28 05:47:00,
2013-05-27 23:52:00,44.2,22.6,29.82,NE,45,2.0,3.0,42,0.00,,,0.00,meteohub,2013-05-28 05:52:00,
2013-05-27 23:57:00,43.9,22.8,29.83,South,180,2.0,2.0,43,0.00,,,0.00,meteohub,2013-05-28 05:57:00,